| time (UTC) | temp F | wind direction | speed knots | gust knots | rain 1hr in | rain 24hr in | rain mn in | humidity % | barometer mb |
| 20260509022150 | 56 | 234 | 0.0 | 0.0 | 0.00 | 0.00 | 0.00 | 73 | 1013.1 |
| 20260509021646 | 56 | 217 | 0.0 | 0.0 | 0.00 | 0.00 | 0.00 | 68 | 1013.1 |
| 20260509021144 | 56 | 217 | 0.0 | 0.0 | 0.00 | 0.00 | 0.00 | 72 | 1013.4 |
| 20260509020642 | 56 | 217 | 0.0 | 0.0 | 0.00 | 0.00 | 0.00 | 70 | 1013.4 |
| 20260509020139 | 56 | 217 | 0.0 | 0.0 | 0.00 | 0.00 | 0.00 | 69 | 1013.4 |
| 20260509015638 | 56 | 217 | 0.0 | 0.0 | 0.00 | 0.00 | 0.00 | 70 | 1013.4 |
| 20260509015135 | 56 | 216 | 0.0 | 0.0 | 0.00 | 0.00 | 0.00 | 74 | 1013.4 |
| 20260509014631 | 57 | 216 | 0.0 | 0.0 | 0.00 | 0.00 | 0.00 | 71 | 1013.4 |
| 20260509014127 | 57 | 216 | 0.0 | 0.0 | 0.00 | 0.00 | 0.00 | 67 | 1013.1 |
| 20260509013625 | 57 | 216 | 0.0 | 0.0 | 0.00 | 0.00 | 0.00 | 67 | 1013.1 |
| 20260509013120 | 57 | 216 | 0.0 | 0.0 | 0.00 | 0.00 | 0.00 | 61 | 1013.1 |
| 20260509012617 | 58 | 217 | 0.0 | 0.0 | 0.00 | 0.00 | 0.00 | 63 | 1013.4 |
| 20260509012114 | 58 | 224 | 0.0 | 0.0 | 0.00 | 0.00 | 0.00 | 68 | 1013.4 |
| 20260509011612 | 59 | 229 | 0.0 | 0.0 | 0.00 | 0.00 | 0.00 | 56 | 1013.4 |
| 20260509011109 | 59 | 210 | 0.0 | 0.0 | 0.00 | 0.00 | 0.00 | 58 | 1013.1 |
| 20260509010607 | 60 | 207 | 0.0 | 0.0 | 0.00 | 0.00 | 0.00 | 54 | 1013.1 |
| 20260509005601 | 61 | 234 | 0.0 | 0.0 | 0.00 | 0.00 | 0.00 | 52 | 1013.1 |
| 20260509005056 | 61 | 222 | 0.0 | 0.0 | 0.00 | 0.00 | 0.00 | 53 | 1013.1 |
| 20260509004553 | 61 | 204 | 0.0 | 0.0 | 0.00 | 0.00 | 0.00 | 52 | 1013.1 |
| 20260509004050 | 62 | 240 | 0.0 | 0.0 | 0.00 | 0.00 | 0.00 | 53 | 1013.1 |
| 20260509003548 | 62 | 240 | 0.0 | 0.0 | 0.00 | 0.00 | 0.00 | 50 | 1013.1 |
| 20260509003045 | 62 | 240 | 0.0 | 0.0 | 0.00 | 0.00 | 0.00 | 50 | 1013.1 |
| 20260509002543 | 63 | 276 | 0.0 | 0.0 | 0.00 | 0.00 | 0.00 | 49 | 1013.1 |
| 20260509002040 | 63 | 262 | 0.0 | 0.0 | 0.00 | 0.00 | 0.00 | 54 | 1013.1 |
| 20260509001537 | 64 | 252 | 0.0 | 0.0 | 0.00 | 0.00 | 0.00 | 47 | 1013.1 |
| 20260509001033 | 64 | 198 | 0.0 | 0.0 | 0.00 | 0.00 | 0.00 | 50 | 1013.4 |
| 20260509000532 | 64 | 216 | 0.0 | 0.0 | 0.00 | 0.00 | 0.00 | 47 | 1013.4 |
| 20260509000027 | 65 | 193 | 0.0 | 0.0 | 0.00 | 0.00 | 0.00 | 46 | 1013.4 |
| 20260508235525 | 65 | 252 | 0.0 | 0.0 | 0.00 | 0.00 | 0.00 | 44 | 1013.4 |
| 20260508235021 | 66 | 240 | 0.9 | 0.9 | 0.00 | 0.00 | 0.00 | 43 | 1013.4 |
| 20260508234519 | 66 | 206 | 1.7 | 1.7 | 0.00 | 0.00 | 0.00 | 45 | 1013.4 |
| 20260508234016 | 66 | 179 | 0.0 | 0.0 | 0.00 | 0.00 | 0.00 | 49 | 1013.8 |
| 20260508233515 | 66 | 336 | 0.9 | 0.9 | 0.00 | 0.00 | 0.00 | 44 | 1013.8 |
| 20260508233012 | 67 | 275 | 1.7 | 1.7 | 0.00 | 0.00 | 0.00 | 42 | 1013.8 |
| 20260508232509 | 67 | 240 | 1.7 | 1.7 | 0.00 | 0.00 | 0.00 | 41 | 1013.8 |
| 20260508232005 | 67 | 234 | 1.7 | 1.7 | 0.00 | 0.00 | 0.00 | 43 | 1013.8 |
| 20260508231503 | 68 | 207 | 1.7 | 1.7 | 0.00 | 0.00 | 0.00 | 42 | 1013.4 |
| 20260508231000 | 68 | 240 | 1.7 | 1.7 | 0.00 | 0.00 | 0.00 | 42 | 1013.4 |
| 20260508230456 | 68 | 138 | 0.9 | 0.9 | 0.00 | 0.00 | 0.00 | 44 | 1013.4 |
| 20260508225953 | 68 | 270 | 1.7 | 1.7 | 0.00 | 0.00 | 0.00 | 42 | 1013.4 |
| 20260508225450 | 68 | 89 | 1.7 | 1.7 | 0.00 | 0.00 | 0.00 | 40 | 1013.4 |
| 20260508224947 | 69 | 177 | 1.7 | 1.7 | 0.00 | 0.00 | 0.00 | 40 | 1013.4 |
| 20260508224445 | 69 | 210 | 1.7 | 1.7 | 0.00 | 0.00 | 0.00 | 43 | 1013.8 |
| 20260508223942 | 69 | 210 | 1.7 | 1.7 | 0.00 | 0.00 | 0.00 | 41 | 1013.8 |
| 20260508223440 | 69 | 218 | 1.7 | 1.7 | 0.00 | 0.00 | 0.00 | 38 | 1013.8 |
| 20260508222937 | 69 | 198 | 2.6 | 2.6 | 0.00 | 0.00 | 0.00 | 39 | 1013.4 |
| 20260508222435 | 70 | 234 | 1.7 | 1.7 | 0.00 | 0.00 | 0.00 | 39 | 1013.4 |
| 20260508221931 | 70 | 283 | 1.7 | 1.7 | 0.00 | 0.00 | 0.00 | 40 | 1013.4 |
| 20260508221427 | 69 | 186 | 0.0 | 0.0 | 0.00 | 0.00 | 0.00 | 42 | 1013.4 |
| 20260508220923 | 70 | 76 | 1.7 | 1.7 | 0.00 | 0.00 | 0.00 | 42 | 1013.4 |
| 20260508220420 | 70 | 240 | 1.7 | 1.7 | 0.00 | 0.00 | 0.00 | 44 | 1013.4 |
| 20260508215916 | 69 | 222 | 1.7 | 1.7 | 0.00 | 0.00 | 0.00 | 40 | 1013.4 |
| 20260508215413 | 69 | 234 | 1.7 | 1.7 | 0.00 | 0.00 | 0.00 | 38 | 1013.4 |
| 20260508214910 | 70 | 216 | 1.7 | 1.7 | 0.00 | 0.00 | 0.00 | 44 | 1013.4 |
| 20260508214407 | 70 | 312 | 1.7 | 1.7 | 0.00 | 0.00 | 0.00 | 40 | 1013.4 |
| 20260508213903 | 70 | 258 | 1.7 | 1.7 | 0.00 | 0.00 | 0.00 | 40 | 1013.4 |
| 20260508213401 | 70 | 193 | 1.7 | 1.7 | 0.00 | 0.00 | 0.00 | 40 | 1013.4 |
| 20260508212856 | 70 | 282 | 2.6 | 2.6 | 0.00 | 0.00 | 0.00 | 40 | 1013.4 |
| 20260508212353 | 71 | 246 | 1.7 | 1.7 | 0.00 | 0.00 | 0.00 | 39 | 1013.4 |
| 20260508211849 | 71 | 222 | 0.0 | 0.0 | 0.00 | 0.00 | 0.00 | 40 | 1013.4 |
| 20260508211344 | 72 | 204 | 1.7 | 1.7 | 0.00 | 0.00 | 0.00 | 37 | 1013.8 |
| 20260508210842 | 72 | 187 | 1.7 | 1.7 | 0.00 | 0.00 | 0.00 | 36 | 1013.8 |
| 20260508210339 | 71 | 198 | 1.7 | 1.7 | 0.00 | 0.00 | 0.00 | 34 | 1013.8 |
| 20260508205835 | 72 | 217 | 1.7 | 1.7 | 0.00 | 0.00 | 0.00 | 37 | 1014.1 |
| 20260508205332 | 72 | 246 | 0.0 | 0.0 | 0.00 | 0.00 | 0.00 | 38 | 1014.1 |
| 20260508204828 | 72 | 168 | 1.7 | 1.7 | 0.00 | 0.00 | 0.00 | 43 | 1014.1 |
| 20260508204325 | 72 | 204 | 0.0 | 0.0 | 0.00 | 0.00 | 0.00 | 38 | 1014.8 |
| 20260508203821 | 72 | 246 | 1.7 | 1.7 | 0.00 | 0.00 | 0.00 | 38 | 1014.8 |
| 20260508203318 | 71 | 188 | 1.7 | 1.7 | 0.00 | 0.00 | 0.00 | 38 | 1014.8 |
| 20260508202813 | 72 | 264 | 2.6 | 2.6 | 0.00 | 0.00 | 0.00 | 37 | 1014.8 |
| 20260508202311 | 72 | 216 | 1.7 | 1.7 | 0.00 | 0.00 | 0.00 | 37 | 1014.8 |
| 20260508201808 | 72 | 228 | 1.7 | 1.7 | 0.00 | 0.00 | 0.00 | 39 | 1014.8 |
| 20260508201305 | 71 | 210 | 2.6 | 2.6 | 0.00 | 0.00 | 0.00 | 40 | 1015.1 |
| 20260508200801 | 71 | 204 | 1.7 | 1.7 | 0.00 | 0.00 | 0.00 | 39 | 1015.1 |
| 20260508200257 | 71 | 193 | 1.7 | 1.7 | 0.00 | 0.00 | 0.00 | 42 | 1015.1 |
| 20260508195754 | 70 | 210 | 1.7 | 1.7 | 0.00 | 0.00 | 0.00 | 41 | 1014.4 |
| 20260508195250 | 70 | 198 | 2.6 | 2.6 | 0.00 | 0.00 | 0.00 | 39 | 1014.4 |
| 20260508194747 | 71 | 60 | 1.7 | 1.7 | 0.00 | 0.00 | 0.00 | 41 | 1014.4 |
| 20260508194244 | 71 | 291 | 1.7 | 1.7 | 0.00 | 0.00 | 0.00 | 42 | 1014.8 |
| 20260508193741 | 70 | 204 | 1.7 | 1.7 | 0.00 | 0.00 | 0.00 | 43 | 1014.8 |
| 20260508193238 | 72 | 198 | 2.6 | 2.6 | 0.00 | 0.00 | 0.00 | 40 | 1014.8 |
| 20260508192734 | 72 | 184 | 1.7 | 1.7 | 0.00 | 0.00 | 0.00 | 44 | 1015.1 |
| 20260508192231 | 71 | 187 | 1.7 | 1.7 | 0.00 | 0.00 | 0.00 | 42 | 1015.1 |
| 20260508191728 | 71 | 216 | 1.7 | 1.7 | 0.00 | 0.00 | 0.00 | 36 | 1015.1 |
| 20260508191225 | 71 | 192 | 1.7 | 1.7 | 0.00 | 0.00 | 0.00 | 40 | 1015.1 |
| 20260508190722 | 71 | 222 | 1.7 | 1.7 | 0.00 | 0.00 | 0.00 | 39 | 1015.1 |
| 20260508190218 | 71 | 228 | 2.6 | 2.6 | 0.00 | 0.00 | 0.00 | 47 | 1015.1 |
| 20260508185715 | 71 | 270 | 1.7 | 1.7 | 0.00 | 0.00 | 0.00 | 40 | 1015.5 |
| 20260508185213 | 71 | 222 | 1.7 | 1.7 | 0.00 | 0.00 | 0.00 | 43 | 1015.5 |
| 20260508184710 | 71 | 210 | 1.7 | 1.7 | 0.00 | 0.00 | 0.00 | 40 | 1015.5 |
| 20260508184207 | 70 | 278 | 1.7 | 1.7 | 0.00 | 0.00 | 0.00 | 40 | 1015.5 |
| 20260508183704 | 71 | 222 | 0.9 | 0.9 | 0.00 | 0.00 | 0.00 | 36 | 1015.5 |
| 20260508183200 | 70 | 252 | 1.7 | 1.7 | 0.00 | 0.00 | 0.00 | 38 | 1015.5 |
| 20260508182656 | 70 | 222 | 1.7 | 1.7 | 0.00 | 0.00 | 0.00 | 41 | 1016.2 |
| 20260508182153 | 70 | 246 | 2.6 | 2.6 | 0.00 | 0.00 | 0.00 | 37 | 1016.2 |
| 20260508181649 | 70 | 192 | 1.7 | 1.7 | 0.00 | 0.00 | 0.00 | 43 | 1016.2 |
| 20260508181146 | 69 | 252 | 3.5 | 3.5 | 0.00 | 0.00 | 0.00 | 43 | 1016.2 |
| 20260508180642 | 70 | 216 | 2.6 | 2.6 | 0.00 | 0.00 | 0.00 | 39 | 1016.2 |
| 20260508180139 | 70 | 216 | 1.7 | 1.7 | 0.00 | 0.00 | 0.00 | 40 | 1016.2 |
| 20260508175636 | 69 | 120 | 1.7 | 1.7 | 0.00 | 0.00 | 0.00 | 40 | 1016.6 |
| 20260508175132 | 70 | 312 | 2.6 | 2.6 | 0.00 | 0.00 | 0.00 | 42 | 1016.6 |
| 20260508174630 | 70 | 216 | 1.7 | 1.7 | 0.00 | 0.00 | 0.00 | 42 | 1016.9 |
| 20260508174127 | 70 | 198 | 1.7 | 1.7 | 0.00 | 0.00 | 0.00 | 41 | 1016.9 |
| 20260508173624 | 69 | 228 | 1.7 | 1.7 | 0.00 | 0.00 | 0.00 | 42 | 1016.9 |
| 20260508173120 | 69 | 234 | 2.6 | 3.5 | 0.00 | 0.00 | 0.00 | 42 | 1016.9 |
| 20260508172617 | 70 | 155 | 1.7 | 1.7 | 0.00 | 0.00 | 0.00 | 43 | 1016.9 |
| 20260508172114 | 70 | 296 | 1.7 | 1.7 | 0.00 | 0.00 | 0.00 | 43 | 1016.9 |
| 20260508171610 | 69 | 240 | 1.7 | 1.7 | 0.00 | 0.00 | 0.00 | 46 | 1016.9 |
| 20260508171107 | 69 | 147 | 1.7 | 1.7 | 0.00 | 0.00 | 0.00 | 41 | 1017.3 |
| 20260508170604 | 69 | 198 | 0.0 | 0.0 | 0.00 | 0.00 | 0.00 | 45 | 1017.3 |
| 20260508165558 | 69 | 193 | 1.7 | 1.7 | 0.00 | 0.00 | 0.00 | 42 | 1017.9 |
| 20260508165055 | 69 | 210 | 1.7 | 1.7 | 0.00 | 0.00 | 0.00 | 42 | 1017.9 |
| 20260508164551 | 69 | 216 | 0.9 | 0.9 | 0.00 | 0.00 | 0.00 | 45 | 1017.9 |
| 20260508164048 | 69 | 198 | 0.0 | 0.0 | 0.00 | 0.00 | 0.00 | 45 | 1017.9 |
| 20260508163546 | 69 | 330 | 3.5 | 3.5 | 0.00 | 0.00 | 0.00 | 42 | 1017.9 |
| 20260508163042 | 69 | 84 | 1.7 | 1.7 | 0.00 | 0.00 | 0.00 | 45 | 1018.3 |
| 20260508162539 | 69 | 228 | 1.7 | 1.7 | 0.00 | 0.00 | 0.00 | 42 | 1018.3 |
| 20260508162037 | 69 | 126 | 1.7 | 1.7 | 0.00 | 0.00 | 0.00 | 47 | 1018.3 |
| 20260508161533 | 69 | 114 | 2.6 | 2.6 | 0.00 | 0.00 | 0.00 | 43 | 1018.3 |
| 20260508161030 | 68 | 147 | 1.7 | 1.7 | 0.00 | 0.00 | 0.00 | 51 | 1018.3 |
| 20260508160529 | 68 | 144 | 1.7 | 1.7 | 0.00 | 0.00 | 0.00 | 47 | 1018.3 |
| 20260508160026 | 69 | 222 | 1.7 | 1.7 | 0.00 | 0.00 | 0.00 | 48 | 1018.6 |
| 20260508155522 | 69 | 270 | 1.7 | 1.7 | 0.00 | 0.00 | 0.00 | 43 | 1018.6 |
| 20260508155020 | 68 | 150 | 0.0 | 0.0 | 0.00 | 0.00 | 0.00 | 46 | 1018.6 |
| 20260508154517 | 69 | 216 | 1.7 | 1.7 | 0.00 | 0.00 | 0.00 | 46 | 1019.0 |
| 20260508154014 | 67 | 192 | 0.9 | 0.9 | 0.00 | 0.00 | 0.00 | 44 | 1019.0 |
| 20260508153510 | 68 | 204 | 1.7 | 1.7 | 0.00 | 0.00 | 0.00 | 47 | 1019.0 |
| 20260508153007 | 68 | 186 | 0.9 | 0.9 | 0.00 | 0.00 | 0.00 | 45 | 1019.0 |
| 20260508152504 | 67 | 96 | 0.0 | 0.0 | 0.00 | 0.00 | 0.00 | 45 | 1019.0 |
| 20260508151959 | 68 | 96 | 1.7 | 1.7 | 0.00 | 0.00 | 0.00 | 46 | 1019.0 |
| 20260508151456 | 67 | 138 | 1.7 | 1.7 | 0.00 | 0.00 | 0.00 | 46 | 1019.0 |
| 20260508150953 | 67 | 234 | 1.7 | 1.7 | 0.00 | 0.00 | 0.00 | 45 | 1019.0 |
| 20260508150450 | 67 | 108 | 1.7 | 1.7 | 0.00 | 0.00 | 0.00 | 45 | 1019.0 |
| 20260508145945 | 66 | 290 | 1.7 | 1.7 | 0.00 | 0.00 | 0.00 | 44 | 1019.3 |
| 20260508145442 | 66 | 179 | 1.7 | 1.7 | 0.00 | 0.00 | 0.00 | 48 | 1019.3 |
| 20260508144939 | 66 | 66 | 1.7 | 1.7 | 0.00 | 0.00 | 0.00 | 46 | 1019.3 |
| 20260508144436 | 66 | 217 | 2.6 | 2.6 | 0.00 | 0.00 | 0.00 | 43 | 1019.0 |
| 20260508143934 | 67 | 264 | 1.7 | 1.7 | 0.00 | 0.00 | 0.00 | 43 | 1019.0 |
| 20260508143431 | 65 | 216 | 0.9 | 0.9 | 0.00 | 0.00 | 0.00 | 43 | 1019.0 |
| 20260508142927 | 64 | 228 | 1.7 | 1.7 | 0.00 | 0.00 | 0.00 | 43 | 1019.0 |
| 20260508142425 | 66 | 234 | 1.7 | 1.7 | 0.00 | 0.00 | 0.00 | 42 | 1019.0 |
| 20260508141921 | 65 | 210 | 0.0 | 0.0 | 0.00 | 0.00 | 0.00 | 44 | 1019.0 |
| 20260508141418 | 65 | 270 | 1.7 | 1.7 | 0.00 | 0.00 | 0.00 | 44 | 1019.3 |
| 20260508140915 | 65 | 206 | 0.0 | 0.0 | 0.00 | 0.00 | 0.00 | 44 | 1019.3 |
| 20260508140412 | 65 | 6 | 1.7 | 1.7 | 0.00 | 0.00 | 0.00 | 44 | 1019.3 |
| 20260508135908 | 64 | 198 | 1.7 | 1.7 | 0.00 | 0.00 | 0.00 | 45 | 1019.3 |
| 20260508135405 | 64 | 354 | 1.7 | 1.7 | 0.00 | 0.00 | 0.00 | 50 | 1019.3 |
| 20260508134901 | 63 | 210 | 0.0 | 0.0 | 0.00 | 0.00 | 0.00 | 48 | 1019.3 |
| 20260508134358 | 62 | 270 | 1.7 | 1.7 | 0.00 | 0.00 | 0.00 | 49 | 1019.3 |
| 20260508133854 | 61 | 144 | 1.7 | 1.7 | 0.00 | 0.00 | 0.00 | 50 | 1019.3 |
| 20260508133352 | 61 | 300 | 0.0 | 0.0 | 0.00 | 0.00 | 0.00 | 50 | 1019.3 |
| 20260508132849 | 62 | 120 | 1.7 | 1.7 | 0.00 | 0.00 | 0.00 | 52 | 1019.0 |
| 20260508132347 | 60 | 192 | 1.7 | 1.7 | 0.00 | 0.00 | 0.00 | 58 | 1019.0 |
| 20260508131843 | 60 | 228 | 0.0 | 0.0 | 0.00 | 0.00 | 0.00 | 53 | 1019.0 |
| 20260508131339 | 60 | 174 | 1.7 | 1.7 | 0.00 | 0.00 | 0.00 | 52 | 1019.0 |
| 20260508130836 | 59 | 174 | 0.0 | 0.0 | 0.00 | 0.00 | 0.00 | 53 | 1019.0 |
| 20260508130333 | 59 | 198 | 0.0 | 0.0 | 0.00 | 0.00 | 0.00 | 54 | 1019.0 |
| 20260508125829 | 62 | 288 | 0.0 | 0.0 | 0.00 | 0.00 | 0.00 | 56 | 1019.3 |
| 20260508125325 | 61 | 270 | 0.0 | 0.0 | 0.00 | 0.00 | 0.00 | 57 | 1019.3 |
| 20260508124823 | 61 | 136 | 0.0 | 0.0 | 0.00 | 0.00 | 0.00 | 56 | 1019.3 |
| 20260508124320 | 60 | 222 | 0.0 | 0.0 | 0.00 | 0.00 | 0.00 | 58 | 1019.3 |
| 20260508123818 | 59 | 240 | 0.0 | 0.0 | 0.00 | 0.00 | 0.00 | 58 | 1019.3 |
| 20260508123316 | 58 | 240 | 0.0 | 0.0 | 0.00 | 0.00 | 0.00 | 59 | 1019.3 |
| 20260508122812 | 58 | 216 | 0.0 | 0.0 | 0.00 | 0.00 | 0.00 | 59 | 1019.0 |
| 20260508122309 | 57 | 228 | 0.0 | 0.0 | 0.00 | 0.00 | 0.00 | 63 | 1019.0 |
| 20260508121806 | 56 | 198 | 0.0 | 0.0 | 0.00 | 0.00 | 0.00 | 65 | 1019.0 |
| 20260508121305 | 54 | 173 | 0.0 | 0.0 | 0.00 | 0.00 | 0.00 | 68 | 1019.0 |
| 20260508120802 | 53 | 198 | 0.0 | 0.0 | 0.00 | 0.00 | 0.00 | 70 | 1019.0 |
| 20260508120300 | 52 | 188 | 0.0 | 0.0 | 0.00 | 0.00 | 0.00 | 74 | 1019.0 |
| 20260508115757 | 51 | 126 | 0.0 | 0.0 | 0.00 | 0.00 | 0.00 | 73 | 1019.0 |
| 20260508115254 | 49 | 130 | 0.0 | 0.0 | 0.00 | 0.00 | 0.00 | 76 | 1019.0 |
| 20260508114750 | 48 | 96 | 0.0 | 0.0 | 0.00 | 0.00 | 0.00 | 77 | 1019.0 |
| 20260508114248 | 46 | 95 | 0.0 | 0.0 | 0.00 | 0.00 | 0.00 | 76 | 1018.6 |
| 20260508113744 | 44 | 95 | 0.0 | 0.0 | 0.00 | 0.00 | 0.00 | 78 | 1018.6 |
| 20260508113243 | 43 | 94 | 0.0 | 0.0 | 0.00 | 0.00 | 0.00 | 85 | 1018.6 |
| 20260508112738 | 42 | 95 | 0.0 | 0.0 | 0.00 | 0.00 | 0.00 | 95 | 1018.3 |
| 20260508112235 | 40 | 95 | 0.0 | 0.0 | 0.00 | 0.00 | 0.00 | 96 | 1018.3 |
| 20260508111732 | 40 | 95 | 0.0 | 0.0 | 0.00 | 0.00 | 0.00 | 96 | 1018.3 |
| 20260508111230 | 39 | 97 | 0.0 | 0.0 | 0.00 | 0.00 | 0.00 | 97 | 1018.6 |
| 20260508110727 | 38 | 186 | 0.0 | 0.0 | 0.00 | 0.00 | 0.00 | 96 | 1018.6 |
| 20260508110224 | 37 | 218 | 0.0 | 0.0 | 0.00 | 0.00 | 0.00 | 97 | 1018.6 |
| 20260508105724 | 37 | 218 | 0.0 | 0.0 | 0.00 | 0.00 | 0.00 | 97 | 1018.3 |
| 20260508105221 | 37 | 218 | 0.0 | 0.0 | 0.00 | 0.00 | 0.00 | 97 | 1018.3 |
| 20260508104718 | 37 | 218 | 0.0 | 0.0 | 0.00 | 0.00 | 0.00 | 97 | 1018.3 |
| 20260508104215 | 37 | 221 | 0.0 | 0.0 | 0.00 | 0.00 | 0.00 | 97 | 1018.3 |
| 20260508103713 | 37 | 216 | 0.0 | 0.0 | 0.00 | 0.00 | 0.00 | 96 | 1018.3 |
| 20260508103209 | 37 | 90 | 0.0 | 0.0 | 0.00 | 0.00 | 0.00 | 96 | 1018.3 |
| 20260508102706 | 37 | 77 | 0.0 | 0.0 | 0.00 | 0.00 | 0.00 | 97 | 1018.3 |
| 20260508102205 | 37 | 126 | 0.0 | 0.0 | 0.00 | 0.00 | 0.00 | 96 | 1018.3 |
| 20260508101702 | 37 | 120 | 0.0 | 0.0 | 0.00 | 0.00 | 0.00 | 97 | 1018.3 |
| 20260508101159 | 37 | 132 | 0.0 | 0.0 | 0.00 | 0.00 | 0.00 | 96 | 1018.3 |
| 20260508100656 | 37 | 164 | 0.0 | 0.0 | 0.00 | 0.00 | 0.00 | 96 | 1018.3 |
| 20260508100154 | 37 | 164 | 0.0 | 0.0 | 0.00 | 0.00 | 0.00 | 96 | 1018.3 |
| 20260508095650 | 37 | 156 | 0.0 | 0.0 | 0.00 | 0.00 | 0.00 | 96 | 1018.3 |
| 20260508095148 | 37 | 107 | 0.0 | 0.0 | 0.00 | 0.00 | 0.00 | 96 | 1018.3 |
| 20260508094644 | 37 | 107 | 0.0 | 0.0 | 0.00 | 0.00 | 0.00 | 97 | 1018.3 |
| 20260508094141 | 38 | 107 | 0.0 | 0.0 | 0.00 | 0.00 | 0.00 | 96 | 1018.3 |
| 20260508093639 | 38 | 102 | 0.0 | 0.0 | 0.00 | 0.00 | 0.00 | 96 | 1018.3 |
| 20260508093136 | 38 | 102 | 0.0 | 0.0 | 0.00 | 0.00 | 0.00 | 97 | 1018.3 |
| 20260508092633 | 38 | 102 | 0.0 | 0.0 | 0.00 | 0.00 | 0.00 | 97 | 1018.3 |
| 20260508092132 | 37 | 164 | 0.0 | 0.0 | 0.00 | 0.00 | 0.00 | 96 | 1018.3 |
| 20260508091629 | 37 | 222 | 0.0 | 0.0 | 0.00 | 0.00 | 0.00 | 97 | 1018.3 |
| 20260508091126 | 37 | 222 | 0.0 | 0.0 | 0.00 | 0.00 | 0.00 | 97 | 1017.9 |
| 20260508090624 | 38 | 222 | 0.0 | 0.0 | 0.00 | 0.00 | 0.00 | 97 | 1017.9 |
| 20260508090121 | 38 | 222 | 0.0 | 0.0 | 0.00 | 0.00 | 0.00 | 97 | 1017.9 |
| 20260508085616 | 38 | 221 | 0.0 | 0.0 | 0.00 | 0.00 | 0.00 | 96 | 1017.9 |
| 20260508085114 | 37 | 162 | 0.0 | 0.0 | 0.00 | 0.00 | 0.00 | 96 | 1017.9 |
| 20260508084610 | 37 | 222 | 0.0 | 0.0 | 0.00 | 0.00 | 0.00 | 96 | 1017.9 |
| 20260508084108 | 37 | 222 | 0.0 | 0.0 | 0.00 | 0.00 | 0.00 | 96 | 1018.3 |
| 20260508083605 | 37 | 222 | 0.0 | 0.0 | 0.00 | 0.00 | 0.00 | 96 | 1018.3 |
| 20260508083102 | 37 | 236 | 0.0 | 0.0 | 0.00 | 0.00 | 0.00 | 96 | 1018.3 |
| 20260508082557 | 37 | 236 | 0.0 | 0.0 | 0.00 | 0.00 | 0.00 | 96 | 1018.3 |
| 20260508082055 | 37 | 235 | 0.0 | 0.0 | 0.00 | 0.00 | 0.00 | 96 | 1018.3 |
| 20260508081552 | 38 | 236 | 0.0 | 0.0 | 0.00 | 0.00 | 0.00 | 96 | 1017.9 |
| 20260508081048 | 38 | 210 | 0.0 | 0.0 | 0.00 | 0.00 | 0.00 | 96 | 1017.9 |
| 20260508080546 | 38 | 210 | 0.0 | 0.0 | 0.00 | 0.00 | 0.00 | 96 | 1017.9 |
| 20260508080043 | 38 | 207 | 0.0 | 0.0 | 0.00 | 0.00 | 0.00 | 96 | 1018.3 |
| 20260508075540 | 38 | 227 | 0.0 | 0.0 | 0.00 | 0.00 | 0.00 | 96 | 1018.3 |
| 20260508075037 | 38 | 230 | 0.0 | 0.0 | 0.00 | 0.00 | 0.00 | 96 | 1018.3 |
| 20260508074535 | 38 | 232 | 0.0 | 0.0 | 0.00 | 0.00 | 0.00 | 96 | 1018.3 |
| 20260508074032 | 38 | 230 | 0.0 | 0.0 | 0.00 | 0.00 | 0.00 | 96 | 1018.3 |
| 20260508073529 | 38 | 232 | 0.0 | 0.0 | 0.00 | 0.00 | 0.00 | 96 | 1018.3 |
| 20260508073027 | 38 | 233 | 0.0 | 0.0 | 0.00 | 0.00 | 0.00 | 96 | 1018.6 |
| 20260508072522 | 38 | 231 | 0.0 | 0.0 | 0.00 | 0.00 | 0.00 | 96 | 1018.6 |
| 20260508072020 | 39 | 204 | 0.0 | 0.0 | 0.00 | 0.00 | 0.00 | 96 | 1018.6 |
| 20260508071517 | 38 | 181 | 0.0 | 0.0 | 0.00 | 0.00 | 0.00 | 96 | 1018.3 |
| 20260508071015 | 38 | 222 | 0.0 | 0.0 | 0.00 | 0.00 | 0.00 | 96 | 1018.3 |
| 20260508070512 | 38 | 226 | 0.0 | 0.0 | 0.00 | 0.00 | 0.00 | 96 | 1018.3 |
| 20260508070011 | 39 | 224 | 0.0 | 0.0 | 0.00 | 0.00 | 0.00 | 96 | 1018.3 |
| 20260508065508 | 39 | 207 | 0.0 | 0.0 | 0.00 | 0.00 | 0.00 | 95 | 1018.3 |
| 20260508065006 | 39 | 204 | 0.0 | 0.0 | 0.00 | 0.00 | 0.00 | 96 | 1018.3 |
| 20260508064503 | 39 | 222 | 0.0 | 0.0 | 0.00 | 0.00 | 0.00 | 96 | 1018.3 |
| 20260508064001 | 39 | 222 | 0.0 | 0.0 | 0.00 | 0.00 | 0.00 | 95 | 1018.3 |
| 20260508063458 | 39 | 222 | 0.0 | 0.0 | 0.00 | 0.00 | 0.00 | 95 | 1018.3 |
| 20260508062956 | 39 | 206 | 0.0 | 0.0 | 0.00 | 0.00 | 0.00 | 95 | 1018.3 |
| 20260508062453 | 39 | 207 | 0.0 | 0.0 | 0.00 | 0.00 | 0.00 | 95 | 1018.3 |
| 20260508061949 | 39 | 198 | 0.0 | 0.0 | 0.00 | 0.00 | 0.00 | 95 | 1018.3 |
| 20260508061448 | 39 | 224 | 0.0 | 0.0 | 0.00 | 0.00 | 0.00 | 95 | 1018.6 |
| 20260508060943 | 39 | 226 | 0.0 | 0.0 | 0.00 | 0.00 | 0.00 | 95 | 1018.6 |
| 20260508060441 | 39 | 226 | 0.0 | 0.0 | 0.00 | 0.00 | 0.00 | 95 | 1018.6 |
| 20260508055937 | 40 | 223 | 0.0 | 0.0 | 0.00 | 0.00 | 0.00 | 95 | 1018.6 |
| 20260508055434 | 40 | 222 | 0.0 | 0.0 | 0.00 | 0.00 | 0.00 | 95 | 1018.6 |
| 20260508054930 | 40 | 223 | 0.0 | 0.0 | 0.00 | 0.00 | 0.00 | 95 | 1018.6 |
| 20260508054428 | 40 | 222 | 0.0 | 0.0 | 0.00 | 0.00 | 0.00 | 95 | 1019.0 |
| 20260508053924 | 40 | 223 | 0.0 | 0.0 | 0.00 | 0.00 | 0.00 | 95 | 1019.0 |
| 20260508053421 | 40 | 223 | 0.0 | 0.0 | 0.00 | 0.00 | 0.00 | 95 | 1019.0 |
| 20260508052920 | 40 | 223 | 0.0 | 0.0 | 0.00 | 0.00 | 0.00 | 95 | 1018.6 |
| 20260508052417 | 40 | 223 | 0.0 | 0.0 | 0.00 | 0.00 | 0.00 | 94 | 1018.6 |
| 20260508051913 | 40 | 223 | 0.0 | 0.0 | 0.00 | 0.00 | 0.00 | 94 | 1018.6 |
| 20260508051409 | 40 | 224 | 0.0 | 0.0 | 0.00 | 0.00 | 0.00 | 94 | 1018.6 |
| 20260508050905 | 41 | 216 | 0.0 | 0.0 | 0.00 | 0.00 | 0.00 | 94 | 1018.6 |
| 20260508050402 | 41 | 208 | 0.0 | 0.0 | 0.00 | 0.00 | 0.00 | 94 | 1018.6 |
| 20260508045857 | 41 | 233 | 0.0 | 0.0 | 0.00 | 0.00 | 0.00 | 94 | 1018.6 |
| 20260508045355 | 41 | 238 | 0.0 | 0.0 | 0.00 | 0.00 | 0.00 | 93 | 1018.6 |
| 20260508044853 | 41 | 238 | 0.0 | 0.0 | 0.00 | 0.00 | 0.00 | 93 | 1018.6 |
| 20260508044349 | 41 | 210 | 0.0 | 0.0 | 0.00 | 0.00 | 0.00 | 93 | 1018.6 |
| 20260508043845 | 41 | 210 | 0.0 | 0.0 | 0.00 | 0.00 | 0.00 | 93 | 1018.6 |
| 20260508043343 | 41 | 210 | 0.0 | 0.0 | 0.00 | 0.00 | 0.00 | 92 | 1018.6 |
| 20260508042839 | 41 | 212 | 0.0 | 0.0 | 0.00 | 0.00 | 0.00 | 92 | 1018.6 |
| 20260508042337 | 41 | 211 | 0.0 | 0.0 | 0.00 | 0.00 | 0.00 | 92 | 1018.6 |
| 20260508041833 | 41 | 216 | 0.0 | 0.0 | 0.00 | 0.00 | 0.00 | 92 | 1018.6 |
| 20260508041330 | 41 | 216 | 0.0 | 0.0 | 0.00 | 0.00 | 0.00 | 92 | 1018.6 |
| 20260508040827 | 41 | 215 | 0.0 | 0.0 | 0.00 | 0.00 | 0.00 | 91 | 1018.6 |
| 20260508040324 | 41 | 215 | 0.0 | 0.0 | 0.00 | 0.00 | 0.00 | 91 | 1018.6 |
| 20260508035821 | 41 | 216 | 0.0 | 0.0 | 0.00 | 0.00 | 0.00 | 90 | 1018.6 |
| 20260508035318 | 42 | 216 | 0.0 | 0.0 | 0.00 | 0.00 | 0.00 | 91 | 1018.6 |
| 20260508034815 | 42 | 216 | 0.0 | 0.0 | 0.00 | 0.00 | 0.00 | 91 | 1018.6 |
| 20260508034312 | 42 | 216 | 0.0 | 0.0 | 0.00 | 0.00 | 0.00 | 90 | 1018.6 |
| 20260508033809 | 42 | 216 | 0.0 | 0.0 | 0.00 | 0.00 | 0.00 | 90 | 1018.6 |
| 20260508033308 | 42 | 216 | 0.0 | 0.0 | 0.00 | 0.00 | 0.00 | 90 | 1018.6 |
| 20260508032805 | 42 | 216 | 0.0 | 0.0 | 0.00 | 0.00 | 0.00 | 90 | 1018.6 |
| 20260508032306 | 42 | 216 | 0.0 | 0.0 | 0.00 | 0.00 | 0.00 | 90 | 1018.6 |
| 20260508031758 | 43 | 216 | 0.0 | 0.0 | 0.00 | 0.00 | 0.00 | 88 | 1018.6 |
| 20260508031255 | 43 | 216 | 0.0 | 0.0 | 0.00 | 0.00 | 0.00 | 88 | 1019.0 |
| 20260508030751 | 43 | 216 | 0.0 | 0.0 | 0.00 | 0.00 | 0.00 | 87 | 1019.0 |
| 20260508030249 | 43 | 216 | 0.0 | 0.0 | 0.00 | 0.00 | 0.00 | 87 | 1019.0 |
| 20260508025745 | 43 | 216 | 0.0 | 0.0 | 0.00 | 0.00 | 0.00 | 86 | 1018.6 |
| 20260508025242 | 43 | 216 | 0.0 | 0.0 | 0.00 | 0.00 | 0.00 | 86 | 1018.6 |
| 20260508024738 | 43 | 216 | 0.0 | 0.0 | 0.00 | 0.00 | 0.00 | 84 | 1018.6 |
| 20260508024235 | 44 | 216 | 0.0 | 0.0 | 0.00 | 0.00 | 0.00 | 83 | 1018.6 |
| 20260508023732 | 44 | 216 | 0.0 | 0.0 | 0.00 | 0.00 | 0.00 | 83 | 1018.6 |
| 20260508023230 | 44 | 216 | 0.0 | 0.0 | 0.00 | 0.00 | 0.00 | 83 | 1018.6 |
| 20260508022725 | 45 | 216 | 0.0 | 0.0 | 0.00 | 0.00 | 0.00 | 83 | 1018.6 |